Flag for U.S.A. Weather past 2 weeks in Lewiston, Idaho, U.S.A.

Now
76 °F

Clear.


Feels Like: 77 °F
Forecast: 62 / 86 °F
Wind: 7 mph from South

Location: Lewiston-Nez Perce County Airport

Current Time: Aug 27, 2015 at 11:00:18 PM

Latest Report: Aug 27, 2015 at 9:56 PM


Visibility: 10 mi

Pressure: 29.94 "Hg

Humidity: 26%

Dew point: 39 °F

Location of LewistonLocation

Historic Weather in Lewiston — Graph

°F

Lewiston temperature yesterday

Maximum temperature yesterday: 92 °F (at 4:56 PM)
Minimum temperature yesterday: 62 °F (at 5:56 AM)
Average temperature yesterday: 76 °F

Past Weeks' High & Low Weather Summary

 TemperatureHumidityPressure
High101 °F (Aug 13, 4:56 PM)54% (Aug 17, 6:56 AM)30.18 "Hg (Aug 17, 6:56 AM)
Low54 °F (Aug 23, 6:56 AM)11% (Aug 20, 4:56 PM)29.62 "Hg (Aug 20, 6:56 PM)
Average75 °F30%29.91 "Hg
* Reported Aug 12 8:56 PM — Aug 27 8:56 PM, Lewiston, Weather by CustomWeather, © 2015

Note: Actual official high and low records may vary slightly from our data, if they occured in-between our weather recording intervals... More about our weather records

Advertising

Lewiston weather history for previous 24 hours

 ConditionsComfort  
Time TempWeatherWind HumidityBarometerVisibility
8:56 PM
Thu, Aug 27
80 °FClear.6 mph24%29.93 "Hg10 mi
7:56 PM85 °FSunny.3 mph21%29.91 "Hg10 mi
6:56 PM89 °FPassing clouds.3 mph18%29.90 "Hg10 mi
5:56 PM91 °FPassing clouds.8 mph16%29.90 "Hg9 mi
4:56 PM93 °FSunny.6 mph14%29.91 "Hg7 mi
3:56 PM93 °FSunny.3 mph14%29.92 "Hg6 mi
2:56 PM92 °FSunny.3 mph16%29.94 "Hg6 mi
1:56 PM90 °FSunny.3 mph17%29.96 "Hg5 mi
12:56 PM87 °FSunny.5 mph21%29.99 "Hg4 mi
11:56 AM82 °FSunny.3 mph24%30.01 "Hg4 mi
10:56 AM78 °FSunny.5 mph30%30.02 "Hg3 mi
9:56 AM73 °FSunny.No wind38%30.03 "Hg2 mi
8:56 AM68 °FSunny.3 mph38%30.03 "Hg4 mi
7:56 AM64 °FSunny.5 mph40%30.02 "Hg7 mi
6:56 AM65 °FClear.No wind39%30.00 "Hg7 mi
5:56 AM66 °FClear.No wind37%29.97 "Hg7 mi
4:56 AM69 °FClear.No wind35%29.96 "Hg6 mi
3:56 AM68 °FClear.No wind35%29.94 "Hg9 mi
2:56 AM70 °FClear.No wind31%29.93 "Hg8 mi
1:56 AM73 °FClear.7 mph27%29.91 "Hg10 mi
12:56 AM73 °FClear.7 mph27%29.91 "Hg10 mi
11:56 PM
Wed, Aug 26
74 °FClear.6 mph26%29.90 "Hg9 mi
Weather by CustomWeather, © 2015

See weather overviewHow to use our weather pages